Regional Weather Roundup
Issued by NWS

Home | Current Version | Previous Version | Graphics & Text | Print | Product List | Glossary On
Versions: 1 2 3 4 5 6 7 8 9 10 11 12 13 14 15 16 17 18 19 20 21 22 23 24 25 26 27 28 29 30 31 32 33 34 35 36 37 38 39 40 41 42 43 44 45 46 47 48 49 50
000
ASUS43 KFSD 122210
RWRSD

WEATHER ROUNDUP FOR SOUTH DAKOTA
NATIONAL WEATHER SERVICE SIOUX FALLS SD
400 PM CST TUE DEC 12 2017

NOTE: "FAIR" INDICATES FEW OR NO CLOUDS BELOW 12,000 FEET WITH NO
SIGNIFICANT WEATHER AND/OR OBSTRUCTIONS TO VISIBILITY.


SDZ001>005-009-010-012>017-122300-
NORTHWEST AND NORTH CENTRAL SOUTH DAKOTA

CITY           SKY/WX    TMP DP  RH WIND       PRES   REMARKS
BUFFALO          N/A     59  19  21 W18       29.84F
FAITH            N/A     58  22  24 W17       29.87F
MOBRIDGE       CLEAR     54  29  38 W7        29.80F
$$

SDZ012>016-024>037-041>051-057-063-072>074-122300-
SOUTHWEST AND SOUTH CENTRAL SOUTH DAKOTA

CITY           SKY/WX    TMP DP  RH WIND       PRES   REMARKS
RAPID CTY ARPT CLEAR     59  15  18 S8        29.96F
PIERRE         CLEAR     54  27  35 W9        29.87F
CUSTER         SUNNY     54   9  16 W15       30.04F
ELLSWORTH AFB  CLEAR     59  15  17 SW5       29.95F SMOKE
PHILIP         CLEAR     61  19  19 W20       29.91F
PINE RIDGE     CLEAR     59  23  25 W9        30.00F
SPEARFISH      FAIR      59  16  18 W12       29.99F
WINNER         FAIR      59  19  21 W8        29.93F
$$

SDZ004>011-016>023-039-040-122300-
NORTHEAST SOUTH DAKOTA

CITY           SKY/WX    TMP DP  RH WIND       PRES   REMARKS
ABERDEEN       CLEAR     45  27  49 SW12      29.81F
WATERTOWN      CLEAR     39  30  70 SW13      29.85F
BROOKINGS      CLEAR     40  29  64 SW13      29.89F
SISSETON         N/A     43  31  62 W5        29.77F
$$

SDZ017-020-022-023-036>040-048>070-122300-
SOUTHEAST SOUTH DAKOTA

CITY           SKY/WX    TMP DP  RH WIND       PRES   REMARKS
SIOUX FALLS    PTCLDY    41  30  65 SW9       29.92F
HURON          CLEAR     47  26  44 SW10      29.87F
CHAMBERLAIN    CLEAR     55  21  26 W6        29.91F
MITCHELL       CLEAR     47  30  51 SW10      29.92F
YANKTON        CLEAR     45  28  51 SW7       29.97F
$$

ABBREVIATIONS USED IN REMARKS
   TC - TEMPERATURE IN CELSIUS
  WCI - WIND CHILL INDEX
   HX - HEAT INDEX
  VSB - VISIBILITY





USA.gov is the U.S. government's official web portal to all federal, state and local government web resources and services.